Wind_Speed
26 25 25 25 24 25 25 26 26 27 27 28 28 29 31 32 33 34 35 36 36 36 35 35 35 35 35 34 34 33 31 30 30 30 30 30 31 31 31 31 31 32 32
28 28 27 27 27 28 28 28 28 29 29 29 30 31 32 33 33 33 33 33 34 34 34 34 35 34 34 34 34 33 32 32 32 33 33 33 34 34 35 35 35 35 35
29 29 29 29 30 30 30 30 31 31 31 31 32 32 33 33 33 32 32 32 32 32 33 33 34 34 35 35 35 35 35 35 36 36 37 37 37 38 39 39 39 39 40
30 30 30 31 31 31 31 31 31 31 32 33 33 33 34 34 34 33 33 33 33 34 34 35 36 37 38 39 40 40 40 40 40 40 41 41 41 42 43 44 44 44 45
32 32 32 32 32 32 32 32 32 32 33 33 34 35 35 35 35 34 35 35 36 37 38 39 40 41 42 43 44 44 45 44 44 44 44 44 44 45 46 47 48 49 50
33 33 32 32 32 33 33 33 32 33 33 35 35 36 36 36 36 35 36 37 38 40 42 43 44 45 46 46 47 48 48 48 47 47 47 47 48 48 49 50 51 53 54
33 33 33 33 33 33 34 34 34 34 35 36 36 36 36 37 37 37 37 38 40 41 43 45 47 48 48 48 48 48 49 49 49 49 50 51 51 51 52 53 55 56 58
34 34 33 33 33 33 35 35 36 36 36 36 36 36 37 37 38 39 40 41 42 44 46 47 49 49 49 49 49 49 50 50 51 52 53 53 54 54 55 57 59 60 61
37 36 35 34 33 34 35 36 36 36 36 37 36 37 38 38 40 40 42 44 45 47 48 49 49 49 49 49 50 51 52 53 54 55 55 56 57 58 60 62 62 62 63
40 39 37 36 35 36 36 36 36 36 36 37 37 38 39 40 41 42 43 44 46 47 48 49 49 50 50 51 52 53 54 55 56 57 58 60 61 63 64 64 65 65 66
43 42 40 38 37 37 37 36 36 36 37 38 39 40 41 41 42 43 44 45 46 47 49 50 51 52 53 53 54 55 55 57 58 60 62 64 65 66 66 67 67 68 69
46 45 43 41 40 39 38 37 37 37 38 39 40 41 41 42 43 44 44 45 46 48 50 53 54 55 55 55 56 57 58 60 61 63 65 66 67 68 69 70 71 72 73
48 47 45 44 42 41 39 38 38 38 39 40 41 42 42 43 44 45 46 47 48 49 51 53 55 56 56 57 59 61 62 63 65 66 66 68 69 70 71 72 73 75 76
49 49 47 45 44 42 40 40 39 40 40 41 42 42 43 44 45 47 48 50 51 52 53 55 56 58 59 61 63 64 65 66 67 68 69 70 71 72 74 75 77 79 81
50 49 47 45 44 42 41 40 41 42 42 42 43 43 44 45 47 49 52 54 56 57 57 57 59 60 62 64 65 66 67 68 69 70 72 73 75 77 79 82 84 86 89
50 48 46 45 44 43 41 41 42 42 42 43 43 44 45 47 50 53 56 58 60 61 61 62 63 64 65 65 66 67 68 70 71 73 76 78 81 84 87 90 92 94 96
49 46 44 43 43 42 41 42 42 43 43 43 44 45 47 50 54 57 59 61 62 64 65 65 67 68 68 68 69 70 72 74 76 80 83 86 90 93 95 97 98 98 97
47 44 43 42 41 40 41 42 42 43 43 44 45 47 51 54 57 60 61 62 64 66 67 67 68 68 69 71 73 75 77 80 84 88 92 95 97 98 98 96 93 88 83
44 42 41 40 39 40 41 41 42 42 43 45 47 51 54 57 59 61 62 64 65 66 68 68 68 70 72 75 78 80 84 88 93 96 97 97 95 91 87 83 77 72 66
40 39 38 38 38 39 39 40 41 42 44 47 51 54 57 59 60 62 63 65 66 67 68 69 70 73 76 80 84 87 90 93 94 94 91 87 81 76 71 67 63 59 57
37 36 36 36 36 37 38 39 41 44 47 50 53 56 57 59 61 63 64 65 66 67 69 71 74 77 81 85 89 92 91 88 83 79 75 69 66 63 60 58 56 54 53
34 33 34 34 35 37 38 41 45 48 51 52 54 56 58 60 62 63 64 66 68 71 73 76 79 83 87 89 89 87 82 76 68 64 63 59 59 57 56 55 54 54 52
31 32 33 33 36 38 42 45 48 49 50 51 54 56 58 60 61 63 64 67 71 74 78 81 84 86 86 84 81 75 69 63 59 58 58 54 55 54 54 53 54 54 52
30 32 33 36 39 41 43 44 45 47 50 52 55 57 58 60 62 64 66 69 74 78 82 84 85 83 80 76 69 63 58 55 53 55 57 54 53 52 51 50 52 53 52
31 35 37 38 39 40 41 42 45 48 51 53 56 57 59 61 64 67 70 74 78 81 83 83 80 75 69 63 58 56 54 53 52 51 56 55 52 51 47 46 48 50 50
31 31 33 34 35 38 41 44 47 49 51 54 56 58 61 64 67 71 74 77 78 78 76 73 68 62 57 55 54 54 54 54 54 52 53 53 49 49 43 39 42 46 47
Wind_Direction
277 278 279 279 280 282 283 285 287 286 286 284 284 284 284 284 283 281 279 278 278 279 280 281 280 278 276 274 274 275 277 279 282 286 288 289 286 284 282 280 279 278 277
275 276 277 279 280 281 282 285 287 287 286 285 285 285 287 287 285 283 282 282 281 280 280 281 280 278 276 274 273 274 275 277 279 282 284 285 284 281 279 278 277 277 277
273 274 276 278 280 282 284 286 287 287 286 285 285 285 286 287 285 282 282 282 282 281 281 282 280 278 277 276 275 274 275 276 277 279 281 282 282 279 277 275 274 274 275
270 272 275 277 280 281 283 285 287 287 286 286 286 285 285 286 284 280 279 280 280 280 281 281 281 281 280 279 278 277 276 276 276 277 279 280 280 279 276 274 273 272 273
266 269 272 275 277 279 281 284 286 288 288 288 287 286 286 286 284 281 279 279 280 281 281 282 282 282 282 281 280 279 277 276 276 276 276 278 279 278 276 274 273 272 271
264 267 270 272 275 278 280 283 286 288 289 289 289 289 287 286 286 284 281 280 281 281 282 283 283 283 283 282 281 280 279 278 277 276 276 276 277 277 275 274 273 273 272
264 267 269 271 274 277 280 282 284 287 289 290 290 290 289 288 287 287 286 284 283 283 284 285 285 285 284 283 281 280 279 278 278 277 277 277 277 276 275 275 275 274 274
262 264 267 270 273 276 278 280 283 286 288 289 290 291 291 290 289 289 289 288 287 287 287 286 286 285 284 283 281 280 279 279 278 278 278 277 277 277 277 277 277 276 275
260 263 267 270 273 275 278 280 282 285 287 288 290 291 291 290 290 290 290 289 289 289 288 288 287 286 285 283 282 281 281 280 279 279 278 278 278 278 279 279 278 277 276
261 264 267 268 271 274 277 279 282 284 286 288 289 290 291 291 291 291 291 291 291 291 291 290 289 287 286 285 284 284 283 283 282 282 282 281 281 281 281 280 279 278 277
262 264 266 268 270 272 275 278 280 282 285 287 289 290 291 292 292 293 294 295 295 295 295 293 292 290 289 287 286 285 284 284 284 285 285 285 284 284 283 282 281 280 279
260 263 265 268 270 272 274 276 279 281 283 286 287 289 290 291 293 293 295 296 297 297 297 296 294 292 291 290 288 287 287 287 287 287 287 286 286 285 285 284 283 282 281
259 261 264 267 269 272 274 276 278 280 282 285 286 288 289 291 292 293 294 295 295 295 295 295 294 293 292 291 291 290 290 289 288 287 286 285 284 283 282 281 281 280 279
257 259 262 265 268 271 273 275 277 279 282 284 285 287 288 290 292 293 294 295 296 296 295 295 295 294 294 293 293 292 292 291 290 288 287 286 285 284 283 282 281 280 280
254 257 260 264 267 269 270 273 276 280 282 283 284 286 288 290 292 293 295 296 297 296 296 296 296 296 295 295 294 293 292 291 290 289 288 287 286 285 285 284 283 283 282
253 256 259 262 264 266 268 272 276 279 281 283 284 287 288 290 292 294 295 297 297 297 297 297 297 297 296 295 294 293 291 291 290 289 289 288 288 288 287 287 286 285 284
250 254 257 259 261 264 267 272 276 279 281 283 285 287 289 291 293 294 296 297 298 298 299 299 298 298 297 296 295 294 294 293 292 292 291 291 291 291 290 290 289 288 286
248 251 254 257 259 262 267 273 277 280 282 284 286 289 291 292 293 295 296 297 298 299 299 299 298 297 297 296 296 296 296 295 295 295 294 294 294 293 292 291 290 288 286
245 249 253 255 258 262 268 273 277 280 283 286 289 291 291 292 294 295 296 298 298 299 299 299 299 298 298 298 298 298 298 298 298 297 297 296 295 294 292 290 289 287 284
242 247 251 254 259 265 271 275 279 283 286 288 290 290 291 293 294 296 297 298 299 299 299 299 300 300 299 299 300 300 300 300 299 298 297 296 295 293 291 290 288 286 282
240 245 250 255 262 268 272 277 281 285 287 288 288 290 292 294 296 298 299 299 300 300 300 300 301 301 301 301 301 301 301 301 300 298 296 295 294 293 292 291 289 286 284
238 245 252 259 265 271 275 279 282 283 285 288 290 292 294 296 298 299 300 301 301 301 301 302 303 303 303 303 303 304 303 301 299 296 295 295 294 293 292 290 289 287 285
238 248 253 260 265 269 274 276 278 284 287 290 292 295 297 298 299 300 301 301 302 303 303 304 304 304 304 305 305 304 303 302 301 297 294 293 291 291 290 289 287 284 283
243 250 254 258 262 266 272 279 285 289 291 293 295 297 298 299 300 300 302 303 304 304 304 305 306 306 307 307 306 305 303 302 301 299 296 295 292 291 290 288 285 283 282
249 253 254 258 265 275 282 287 291 293 295 297 298 299 300 300 301 302 304 305 306 306 307 307 308 309 309 308 307 306 306 305 303 301 298 299 297 293 290 287 284 282 282
251 257 264 272 281 286 289 292 294 296 297 299 300 301 302 303 304 305 306 307 307 307 308 309 310 311 311 310 310 310 309 308 307 304 301 301 300 296 291 284 281 280 281
Height
5820 5820 5820 5820 5820 5819 5819 5818 5817 5816 5815 5815 5814 5812 5810 5808 5806 5805 5803 5802 5801 5801 5799 5798 5797 5796 5795 5794 5793 5792 5791 5790 5789 5788 5787 5786 5785 5784 5784 5783 5783 5783 5782
5815 5815 5815 5815 5814 5814 5813 5812 5811 5810 5809 5808 5807 5806 5804 5801 5800 5798 5796 5795 5794 5793 5792 5791 5790 5789 5788 5787 5786 5784 5783 5782 5782 5781 5780 5779 5777 5776 5776 5775 5775 5774 5774
5809 5809 5809 5809 5808 5807 5806 5805 5805 5804 5803 5801 5800 5798 5797 5794 5792 5791 5789 5788 5787 5786 5785 5783 5782 5781 5780 5779 5778 5777 5775 5774 5773 5772 5771 5770 5769 5767 5766 5766 5765 5764 5764
5802 5803 5803 5803 5802 5801 5800 5799 5798 5797 5796 5794 5792 5791 5789 5787 5785 5783 5782 5780 5779 5778 5777 5775 5774 5773 5772 5770 5769 5768 5766 5765 5764 5762 5761 5760 5758 5757 5756 5755 5754 5754 5753
5795 5795 5796 5796 5795 5794 5794 5793 5791 5790 5788 5787 5785 5783 5781 5780 5778 5776 5774 5772 5771 5769 5768 5766 5765 5764 5762 5761 5759 5758 5756 5755 5753 5752 5750 5748 5747 5746 5744 5743 5742 5742 5741
5787 5787 5788 5788 5787 5787 5786 5785 5784 5783 5781 5779 5777 5775 5774 5772 5770 5768 5766 5764 5763 5761 5759 5757 5755 5753 5752 5750 5748 5746 5744 5743 5742 5740 5738 5737 5735 5733 5731 5730 5729 5728 5727
5779 5780 5780 5780 5780 5779 5779 5778 5777 5775 5773 5772 5770 5767 5766 5764 5761 5759 5757 5756 5754 5752 5749 5747 5745 5742 5740 5738 5736 5734 5732 5730 5728 5727 5725 5723 5721 5720 5718 5716 5714 5713 5712
5772 5772 5772 5773 5772 5772 5771 5770 5769 5767 5766 5764 5762 5759 5758 5756 5753 5751 5748 5746 5744 5741 5739 5736 5734 5731 5728 5726 5723 5721 5719 5717 5715 5713 5711 5709 5707 5705 5703 5701 5699 5697 5696
5763 5764 5765 5765 5765 5764 5763 5762 5761 5759 5758 5756 5754 5752 5749 5747 5745 5742 5739 5736 5734 5731 5727 5724 5722 5719 5716 5713 5710 5708 5705 5703 5700 5698 5696 5694 5692 5689 5687 5684 5682 5680 5678
5754 5755 5756 5756 5756 5756 5755 5753 5752 5751 5749 5747 5745 5743 5741 5738 5736 5733 5730 5726 5723 5719 5716 5712 5709 5706 5703 5700 5697 5693 5690 5687 5685 5682 5679 5677 5674 5672 5669 5666 5664 5661 5659
5745 5746 5747 5748 5748 5747 5746 5745 5744 5743 5741 5739 5736 5734 5731 5728 5726 5723 5719 5716 5713 5708 5704 5700 5696 5693 5689 5686 5682 5678 5675 5672 5668 5665 5662 5658 5655 5651 5648 5646 5643 5640 5638
5735 5736 5738 5738 5738 5738 5737 5736 5735 5734 5732 5730 5728 5725 5722 5720 5716 5713 5710 5706 5702 5697 5692 5686 5681 5678 5674 5670 5666 5663 5660 5656 5652 5648 5643 5639 5635 5631 5627 5624 5620 5617 5614
5725 5726 5728 5728 5728 5728 5728 5727 5726 5725 5724 5721 5719 5716 5713 5710 5706 5703 5699 5696 5692 5688 5682 5675 5669 5664 5660 5655 5651 5647 5643 5638 5634 5630 5625 5621 5616 5612 5608 5604 5600 5596 5593
5715 5716 5717 5718 5718 5718 5718 5718 5717 5716 5714 5712 5709 5706 5703 5699 5695 5692 5688 5683 5679 5676 5670 5663 5656 5650 5645 5640 5634 5630 5625 5620 5615 5610 5605 5600 5595 5590 5586 5581 5577 5573 5569
5704 5706 5708 5708 5709 5709 5709 5708 5708 5706 5704 5702 5699 5696 5692 5688 5684 5679 5674 5670 5665 5661 5657 5651 5643 5637 5630 5624 5618 5612 5607 5601 5595 5589 5583 5577 5572 5567 5562 5557 5552 5547 5542
5694 5696 5698 5699 5699 5699 5699 5699 5698 5696 5694 5692 5688 5685 5681 5676 5672 5666 5661 5656 5650 5645 5641 5635 5628 5621 5614 5607 5600 5594 5588 5582 5575 5568 5561 5554 5548 5542 5535 5529 5522 5516 5510
5684 5687 5688 5689 5690 5690 5690 5689 5688 5686 5684 5681 5677 5673 5669 5664 5659 5653 5648 5642 5636 5630 5624 5619 5610 5602 5595 5588 5581 5574 5567 5560 5553 5544 5536 5528 5521 5513 5505 5497 5489 5482 5475
5674 5677 5679 5680 5681 5681 5681 5680 5678 5676 5673 5670 5666 5662 5657 5652 5646 5640 5634 5628 5621 5614 5607 5601 5594 5585 5577 5568 5561 5554 5546 5537 5528 5518 5508 5499 5490 5481 5472 5463 5455 5449 5443
5664 5667 5669 5671 5672 5672 5671 5670 5668 5665 5662 5658 5654 5650 5644 5639 5633 5627 5620 5613 5606 5598 5590 5583 5577 5568 5559 5549 5540 5532 5522 5511 5499 5487 5477 5468 5458 5448 5439 5431 5426 5421 5417
5655 5658 5660 5662 5662 5662 5661 5660 5657 5654 5651 5647 5642 5637 5631 5625 5619 5613 5605 5597 5590 5582 5573 5566 5558 5549 5540 5528 5518 5509 5500 5486 5472 5457 5446 5438 5429 5421 5413 5407 5403 5399 5395
5647 5650 5652 5653 5653 5653 5652 5650 5647 5643 5639 5635 5630 5624 5618 5612 5605 5597 5589 5581 5573 5565 5557 5548 5540 5530 5519 5507 5495 5483 5473 5462 5448 5431 5423 5415 5406 5400 5393 5387 5383 5379 5376
5639 5642 5644 5644 5644 5643 5642 5639 5636 5632 5628 5623 5617 5611 5604 5597 5589 5582 5573 5565 5556 5547 5538 5529 5519 5507 5496 5483 5471 5458 5447 5437 5429 5414 5404 5399 5388 5383 5376 5370 5364 5360 5357
5632 5635 5635 5636 5635 5633 5631 5629 5625 5620 5615 5610 5604 5597 5590 5582 5575 5567 5559 5550 5539 5527 5517 5507 5497 5484 5472 5460 5449 5437 5425 5416 5408 5395 5387 5385 5375 5369 5362 5354 5347 5343 5340
5626 5627 5628 5627 5626 5624 5621 5618 5613 5609 5603 5597 5590 5583 5576 5568 5560 5552 5544 5534 5522 5509 5498 5485 5473 5461 5448 5437 5427 5418 5409 5401 5394 5380 5368 5366 5361 5354 5348 5340 5330 5325 5322
5619 5619 5619 5618 5616 5613 5610 5607 5602 5596 5590 5583 5576 5569 5562 5554 5545 5536 5527 5517 5504 5490 5475 5462 5450 5439 5428 5418 5409 5402 5393 5385 5379 5368 5352 5347 5343 5336 5333 5326 5316 5309 5306
5612 5612 5611 5609 5606 5603 5600 5595 5590 5584 5578 5570 5562 5555 5547 5538 5528 5518 5508 5497 5485 5472 5458 5445 5433 5422 5413 5403 5394 5386 5377 5369 5360 5353 5341 5332 5326 5317 5317 5314 5305 5296 5291